Theta_e
311 312 313 313 315 316 315 315 314 310 309 311 312 318 329 334 334 329 321 322 323 326 329 327 330 335 337 336 335 338 342 339 338 337 333 333 333 331 332 331 333 334 330 330 330 327 325 324 327 327 322 323 322 323 332 333 337 344 335 329 333 340 341 335 334 339 336 330 329 329 330 328 327 325 326 332 329 328 338 336 331 333 332 333 338 337 336
310 311 312 313 314 315 315 315 314 311 309 310 312 322 331 329 329 329 321 322 324 322 325 326 333 341 339 334 332 335 340 339 338 337 335 337 337 335 333 330 331 331 329 330 330 328 326 322 324 328 325 324 323 325 331 330 333 338 334 331 332 332 334 336 340 340 338 340 339 331 329 328 328 326 326 329 329 331 336 333 337 339 332 333 339 336 336
310 311 312 312 313 314 315 315 315 312 309 309 313 319 325 327 329 329 325 323 323 327 334 336 335 336 336 338 338 334 337 340 337 335 335 336 335 335 333 330 328 327 327 329 328 328 329 327 326 327 325 324 323 325 328 327 329 332 335 343 340 330 337 349 349 339 335 338 336 330 329 328 329 329 327 328 331 338 338 333 339 340 332 334 337 335 335
310 311 312 312 313 314 315 315 315 313 309 309 311 314 321 330 333 333 334 334 328 329 334 331 326 327 333 340 341 336 337 340 337 334 335 334 334 336 334 329 328 327 327 330 330 327 329 332 329 326 325 325 323 324 327 329 333 337 342 353 355 343 343 354 354 344 340 343 341 338 336 331 328 329 330 329 330 335 336 335 338 336 333 335 334 331 333
308 311 312 312 313 314 314 315 315 314 310 308 312 316 322 329 333 333 333 336 336 335 335 326 321 327 335 338 340 339 340 340 335 332 332 336 339 340 336 330 329 329 329 332 333 331 329 329 328 327 327 327 325 323 327 333 341 345 339 345 361 356 341 343 345 340 342 345 340 334 330 328 328 328 331 333 332 333 334 334 334 332 334 336 332 331 333
306 310 312 312 313 313 314 315 316 314 311 308 314 323 326 327 332 330 327 333 338 336 335 331 327 332 336 337 340 341 338 338 337 334 334 337 337 344 350 343 334 331 328 329 333 336 334 329 327 328 325 325 328 327 323 330 342 343 334 339 360 358 337 332 335 330 332 333 327 327 329 328 329 330 332 333 335 335 333 331 332 333 336 335 331 331 333
305 308 311 312 313 313 313 314 315 314 312 312 316 324 326 326 331 330 326 331 334 329 329 331 332 337 341 340 341 340 338 340 339 336 340 342 335 341 357 354 339 331 331 332 336 335 333 328 328 332 330 329 337 334 324 327 336 338 334 335 348 350 335 334 340 330 324 325 323 326 329 326 327 329 328 330 332 334 334 332 332 333 333 332 331 332 332
305 307 309 311 313 313 313 314 315 312 313 316 319 322 323 325 329 330 328 331 333 330 330 331 332 336 340 340 341 339 339 343 340 334 339 345 338 335 343 345 337 332 332 336 338 336 340 340 334 336 337 334 341 342 332 329 330 331 331 331 339 341 329 337 356 339 320 323 326 326 328 328 329 329 326 328 329 329 332 331 330 332 332 330 331 332 331
306 306 308 310 312 313 313 313 315 313 312 317 321 321 319 320 321 324 329 337 337 332 330 329 332 337 337 336 338 338 339 341 339 336 337 342 341 337 339 341 338 336 336 336 335 335 342 345 337 339 341 335 338 343 334 332 331 327 329 331 339 343 330 336 356 339 318 323 327 324 327 328 330 330 328 329 330 329 330 331 330 332 331 330 333 334 332
306 306 307 309 311 313 313 313 315 314 312 314 319 319 317 318 319 319 327 337 336 329 329 330 333 336 335 334 333 334 339 340 337 339 337 334 336 341 345 345 338 338 340 338 334 334 337 333 327 331 333 327 333 339 333 337 342 337 334 331 333 347 342 335 344 335 320 323 329 330 337 334 329 332 331 329 331 331 331 332 330 329 329 332 334 333 331
305 306 307 308 310 313 314 313 314 315 313 312 314 315 315 316 318 319 327 340 338 328 329 332 331 331 334 335 334 335 340 339 337 343 343 336 335 339 344 345 338 339 344 336 328 328 328 325 321 321 323 321 327 333 329 335 343 345 346 335 329 347 351 337 342 341 322 322 334 340 344 338 331 335 337 329 329 331 332 332 331 329 330 332 331 329 328
304 306 307 308 310 312 314 314 315 315 314 312 311 312 314 314 316 319 327 342 340 329 331 334 329 328 331 334 335 336 337 335 334 343 349 343 337 336 340 342 340 343 345 332 321 321 321 320 318 317 321 322 323 327 327 328 334 340 347 341 336 348 348 335 342 345 329 330 341 336 334 336 334 336 336 329 325 328 331 331 330 329 330 329 329 328 328
304 306 308 309 309 312 314 314 315 315 315 314 311 310 312 314 317 319 324 336 337 328 330 333 327 324 327 332 336 336 336 337 337 340 345 342 338 337 335 337 338 339 333 325 326 329 324 322 323 319 323 330 331 330 328 328 331 335 339 343 347 349 342 333 338 337 328 333 341 333 330 333 331 329 328 326 326 328 331 332 329 327 328 328 328 327 326
304 307 308 309 309 311 313 314 315 315 314 315 312 310 312 314 316 317 320 331 334 325 325 330 329 325 325 329 335 339 342 345 342 339 339 336 336 338 334 330 330 329 326 325 332 334 329 331 335 327 325 334 335 328 325 327 331 332 332 337 346 349 343 338 335 330 329 335 337 336 335 330 328 330 329 330 331 329 332 333 329 327 329 328 327 327 325
303 306 308 308 309 310 312 313 315 315 314 315 313 311 312 314 316 316 317 324 332 328 326 328 328 326 325 327 332 338 346 350 345 341 339 334 332 333 330 326 324 322 323 327 332 335 332 329 328 325 323 325 325 321 322 322 323 327 333 337 340 340 338 338 332 325 332 341 338 338 341 336 334 338 337 336 336 332 332 332 329 331 330 325 323 325 323
302 305 307 308 308 310 312 313 314 314 314 315 314 311 312 314 315 316 316 320 327 329 325 322 323 323 325 328 331 334 341 346 345 346 349 345 338 334 331 327 325 321 321 327 333 338 337 329 325 328 329 326 322 319 320 320 318 323 336 342 337 332 336 345 338 324 329 342 341 338 341 339 339 341 334 330 332 334 336 335 333 333 328 320 321 324 322
301 303 306 308 308 309 311 312 313 314 314 315 314 312 311 314 314 316 318 319 324 327 323 318 321 325 326 328 330 334 338 340 339 342 349 344 336 337 338 334 329 324 318 325 339 341 332 327 326 327 328 326 320 316 318 321 319 320 328 335 335 334 341 347 339 327 332 344 341 336 335 333 337 340 332 327 332 336 336 336 336 334 326 319 320 322 320
301 303 305 307 308 308 310 311 313 313 313 314 315 312 311 314 315 316 317 318 321 327 324 317 319 324 324 322 325 331 335 335 336 340 344 339 334 339 343 338 335 333 322 320 338 339 323 321 326 328 329 326 318 319 323 320 319 323 328 329 328 328 333 340 339 333 338 346 340 334 336 335 335 337 334 331 332 332 334 337 337 331 324 319 318 319 318
300 303 303 306 308 308 309 311 312 313 314 314 314 313 312 314 314 315 317 318 320 324 321 315 316 321 319 317 322 327 327 329 336 340 340 338 335 336 335 330 334 345 335 324 333 334 322 319 325 328 330 326 321 324 325 320 321 328 330 329 330 325 321 325 329 326 331 341 341 335 336 336 333 331 331 329 330 332 336 335 328 324 322 319 317 317 316
299 302 303 305 307 307 309 310 311 312 313 313 314 314 312 313 314 314 317 318 318 320 319 315 315 317 316 315 319 322 321 324 331 333 334 339 339 335 335 334 333 336 334 328 328 326 322 323 326 323 324 330 329 325 322 322 324 328 330 330 333 331 323 320 321 321 325 334 338 337 339 338 331 328 327 329 334 336 331 324 319 319 319 317 315 316 314
297 301 303 304 305 306 307 309 310 311 312 313 314 314 312 312 314 315 315 315 316 320 320 317 315 316 316 316 316 316 317 319 322 324 329 337 340 335 335 339 334 326 328 334 333 328 326 328 328 322 322 328 328 322 323 324 320 321 329 331 327 327 332 331 329 329 332 336 338 339 339 336 333 334 333 332 333 329 321 317 318 317 316 315 316 315 313
295 299 301 302 304 305 306 307 309 311 312 313 313 313 312 312 313 313 314 315 316 318 319 317 317 316 315 316 316 315 316 316 316 318 322 329 336 335 331 335 335 327 325 330 330 329 328 325 322 323 326 327 324 322 328 331 325 320 323 325 323 326 335 339 333 328 330 337 339 335 329 326 329 334 332 328 326 323 318 317 317 316 315 315 315 314 313
293 295 298 300 303 305 306 307 308 311 312 312 313 313 312 312 312 313 314 315 316 318 317 315 315 317 317 316 315 315 316 316 316 318 317 321 331 335 331 331 333 332 327 325 324 329 332 327 323 325 329 329 328 325 325 328 333 332 324 321 324 327 332 338 334 326 326 331 329 326 325 323 323 324 323 322 322 319 317 317 317 316 315 314 313 313 313
292 293 295 299 302 304 305 306 307 310 311 312 313 312 311 311 312 313 315 316 315 317 318 316 316 321 322 318 316 317 318 317 317 318 318 318 325 334 336 332 329 331 332 328 325 327 328 323 322 323 324 328 330 327 323 321 325 332 331 324 322 324 331 338 334 329 332 332 325 323 324 321 320 319 319 319 319 316 315 316 315 314 313 312 312 311 310
292 292 294 297 300 303 305 306 307 309 311 311 312 312 311 311 312 313 315 316 315 316 320 322 321 319 317 316 316 317 318 319 318 318 319 318 322 330 335 331 324 325 327 326 328 330 326 322 323 323 323 327 326 323 326 327 324 328 332 329 324 323 329 333 330 331 335 332 325 324 322 319 318 318 317 316 316 315 315 313 311 310 310 309 309 307 307
292 292 292 295 299 303 305 306 307 309 311 311 312 312 311 311 312 312 313 315 315 315 317 321 322 317 313 315 317 316 317 318 317 318 319 319 320 323 325 325 324 323 322 324 328 329 325 323 326 326 326 330 330 330 331 327 323 326 328 327 325 325 325 328 328 328 328 325 323 323 322 319 318 317 316 315 314 313 313 311 309 309 309 308 307 306 305
292 292 291 293 298 303 305 306 307 309 310 311 312 311 311 311 311 312 312 314 316 317 317 318 319 315 312 313 314 314 316 316 316 319 320 319 320 320 320 324 329 328 325 326 328 326 323 324 327 330 333 333 332 334 331 323 324 332 328 319 320 324 325 325 326 327 329 326 322 322 323 322 318 316 315 314 312 311 312 311 310 310 310 308 309 307 304
292 292 292 292 297 302 306 307 308 309 310 311 312 311 312 312 311 311 312 313 315 316 316 314 313 313 314 315 314 314 316 315 314 318 319 319 320 320 319 322 328 330 328 328 327 324 322 322 323 326 330 333 331 330 327 323 325 330 325 318 320 326 325 324 328 331 332 326 320 320 324 322 316 315 314 312 310 311 312 311 311 310 308 307 307 308 306
292 292 292 292 296 302 306 307 308 309 309 311 311 310 311 312 311 311 312 312 312 314 314 313 314 317 318 316 314 313 315 315 314 316 319 320 321 322 322 323 326 329 328 326 323 323 323 328 332 328 323 326 330 328 325 325 326 328 326 324 326 327 323 321 325 330 327 322 319 321 322 319 315 314 314 311 310 310 312 311 309 308 306 305 305 305 306
293 292 292 292 295 301 306 308 308 310 310 310 310 310 311 312 311 310 311 311 311 313 314 315 317 318 316 314 313 313 313 314 314 315 317 319 319 320 323 326 327 326 327 325 324 325 326 329 335 333 325 325 331 327 324 327 329 329 331 330 328 325 321 318 323 329 327 321 319 319 319 317 314 313 312 311 309 309 310 309 308 306 306 305 304 303 304
293 292 292 292 295 301 306 307 308 309 310 310 310 312 314 313 310 310 311 311 311 312 313 313 315 315 314 313 313 312 312 313 315 316 317 318 320 320 321 324 326 326 329 328 324 324 326 327 330 331 326 326 333 332 328 328 326 321 325 330 327 323 323 322 323 325 323 319 317 317 317 316 313 313 313 311 309 308 307 306 306 306 305 305 304 304 304
293 293 292 292 295 301 306 307 307 308 309 310 310 311 312 311 309 309 310 311 312 312 313 314 316 316 316 316 314 312 312 314 317 320 321 321 322 321 320 323 325 324 326 327 324 322 327 331 332 329 323 320 326 328 327 331 334 326 322 326 325 322 324 325 322 319 317 316 316 317 316 315 314 315 313 309 307 307 306 306 306 306 305 304 304 304 304
293 293 292 292 295 302 307 307 307 307 308 309 310 310 309 308 309 310 310 311 312 313 312 313 315 314 314 316 315 312 314 319 322 324 326 324 322 323 325 328 326 320 319 325 327 325 326 329 330 328 323 320 321 322 322 330 339 333 323 323 324 322 322 322 319 317 316 316 316 317 317 316 314 311 308 307 307 307 306 306 306 305 304 303 303 303 303
293 293 292 292 297 304 308 307 306 307 308 308 309 310 309 309 309 310 311 312 313 313 312 312 313 314 314 316 317 315 317 324 327 326 327 325 321 323 327 328 326 321 319 324 328 326 324 325 326 325 324 321 317 317 320 325 329 326 321 321 321 321 319 319 317 317 318 317 317 316 313 310 309 307 306 306 307 306 306 305 304 304 304 303 303 303 303
294 292 291 294 301 306 307 306 306 307 307 307 308 309 309 310 310 309 311 312 312 313 313 312 312 314 316 318 320 318 315 320 325 327 329 327 322 323 327 326 325 327 325 324 326 327 324 322 323 325 325 320 314 315 321 324 322 319 320 321 320 319 320 320 318 318 319 319 317 313 308 306 307 307 307 307 306 305 305 304 303 304 305 305 303 302 303
294 292 292 298 304 306 306 306 307 308 307 307 308 308 308 309 309 309 310 311 310 312 314 313 312 314 315 317 321 320 315 318 325 326 326 325 322 323 327 327 326 329 327 324 327 331 327 321 321 324 323 319 317 321 323 323 321 319 319 319 319 319 320 320 319 318 317 315 312 310 308 308 308 308 307 307 306 304 304 305 304 304 305 305 303 302 302
293 292 296 303 306 306 306 306 307 307 307 308 308 308 308 308 308 308 308 309 310 310 312 312 313 315 314 316 319 319 315 320 325 322 322 326 326 324 326 327 325 325 324 323 326 331 331 324 320 321 325 327 331 331 325 319 319 319 318 318 320 319 319 318 317 315 314 312 310 310 309 308 308 308 307 307 307 305 305 305 304 304 304 304 303 302 302
293 294 299 305 306 305 306 307 305 306 308 308 307 308 307 306 307 307 307 308 309 309 310 312 313 313 313 315 316 315 314 319 325 323 322 325 324 320 320 324 323 321 321 322 323 326 331 328 320 320 327 333 331 327 322 319 318 318 316 318 320 319 318 316 314 313 313 313 312 311 310 309 309 308 308 307 307 305 304 303 303 303 303 303 303 302 302
294 296 301 304 305 306 307 306 305 307 308 307 306 307 305 304 306 308 307 306 307 308 310 312 312 312 314 314 314 313 312 314 320 323 322 323 324 321 319 321 320 317 318 323 322 321 323 324 320 318 325 329 325 321 321 321 319 317 317 316 317 316 316 316 314 313 314 313 312 311 310 310 309 309 308 307 305 304 302 303 303 303 303 303 303 303 302
295 299 302 303 305 306 307 306 306 307 306 304 304 305 304 304 307 308 306 306 308 308 309 311 311 310 312 313 313 313 312 312 316 321 321 322 325 324 319 319 319 317 317 323 325 322 321 322 320 318 321 326 325 321 320 320 319 319 318 314 312 313 315 314 313 313 313 312 311 310 309 309 308 307 306 305 305 304 303 303 302 303 303 302 303 303 303
296 300 303 304 305 306 306 306 305 305 304 303 304 305 306 306 306 305 305 307 309 308 308 309 311 311 311 312 312 313 312 312 315 318 318 319 321 320 318 318 318 316 317 321 323 322 322 321 320 321 324 325 323 321 319 319 319 319 317 312 311 312 314 313 312 312 312 311 310 309 309 308 307 305 304 304 303 303 303 302 302 302 302 302 303 303 303
298 301 303 305 305 305 304 304 303 302 303 304 305 306 306 306 305 304 305 307 308 308 308 310 312 313 312 312 312 313 313 314 315 316 317 318 319 319 318 317 314 314 319 322 320 319 320 320 320 324 327 324 322 323 321 318 319 319 317 312 310 311 312 311 311 311 311 310 309 308 308 307 306 304 304 304 303 303 303 302 301 302 302 303 303 303 302
300 302 303 303 303 302 303 303 303 302 304 305 306 307 307 306 305 306 306 306 307 310 311 310 311 312 312 311 311 313 313 314 316 318 318 317 316 316 315 314 314 318 324 322 317 318 321 320 322 325 325 320 320 324 322 317 317 318 316 311 310 311 312 311 310 311 311 310 309 308 307 306 305 304 304 304 303 303 303 302 302 302 303 303 303 302 302
299 300 301 302 302 301 302 304 303 303 305 306 306 307 308 307 306 307 308 308 308 311 312 312 311 312 313 313 313 314 314 314 316 318 318 317 315 313 312 314 319 323 322 318 318 321 322 321 323 325 323 318 318 321 321 318 317 317 315 312 310 310 310 311 310 310 310 309 308 307 307 305 304 304 304 304 304 303 302 302 302 303 303 302 302 302 301
300 300 301 302 302 301 302 304 303 303 305 305 305 307 308 308 307 308 309 310 310 311 312 312 312 313 314 314 313 315 316 316 315 317 318 317 316 314 314 318 320 318 316 317 320 321 319 320 322 322 319 317 317 318 320 318 317 316 315 314 312 311 311 311 311 310 308 308 307 306 305 304 304 304 304 304 304 303 303 302 302 302 302 302 302 301 301
300 301 301 302 302 302 302 303 304 304 304 305 306 308 308 308 308 309 309 309 310 312 313 313 312 313 315 315 313 315 318 317 316 316 316 315 315 316 315 316 315 314 315 318 319 317 319 323 323 319 317 318 318 317 318 318 316 315 314 315 315 313 312 311 310 309 308 307 306 306 305 304 304 304 304 303 303 303 303 302 302 302 302 301 301 301 301
299 300 301 302 302 302 301 302 304 304 304 306 307 309 310 310 309 310 310 309 310 311 312 312 312 314 314 314 313 315 317 317 316 316 315 314 315 316 314 312 312 313 315 315 316 319 324 326 322 317 318 318 317 317 318 317 315 315 314 314 314 313 311 310 309 308 307 306 305 305 304 304 304 304 303 303 303 303 302 302 302 302 302 301 301 301 300
299 300 300 301 302 302 301 302 303 305 306 307 307 308 308 308 308 310 312 311 309 309 310 311 313 316 316 314 313 315 315 314 315 316 315 314 315 315 314 313 315 315 314 315 320 326 328 324 319 319 321 319 318 318 318 316 315 315 314 313 313 312 311 310 308 306 306 305 305 304 304 304 304 304 303 303 302 302 301 302 302 302 301 301 301 300 300
298 299 300 300 301 302 303 303 303 304 306 306 305 306 307 306 307 310 313 312 310 311 311 311 313 315 314 312 311 313 313 313 315 316 316 315 314 314 315 317 317 316 316 321 326 329 327 321 319 320 320 319 319 318 316 315 315 315 313 313 312 311 309 308 307 306 305 305 304 304 304 304 303 303 303 302 301 301 301 301 301 301 301 301 300 300 300
297 298 299 300 301 303 303 302 302 303 304 304 304 305 307 308 309 309 309 310 313 315 314 312 312 312 311 311 312 313 313 314 314 315 315 315 314 314 315 316 317 318 321 325 327 326 324 320 319 319 319 319 319 319 317 316 316 314 312 311 311 309 308 307 306 305 305 305 304 304 304 303 303 303 302 302 301 301 301 301 301 301 300 300 300 300 299
297 298 298 299 300 302 303 302 302 303 303 302 302 303 305 308 312 311 308 309 314 316 314 311 309 308 310 313 316 315 313 313 313 313 314 315 314 314 315 317 320 325 328 326 322 321 320 318 317 318 319 320 320 319 317 315 314 312 311 311 310 308 307 307 305 304 305 304 304 304 303 303 303 303 302 302 302 301 300 300 300 300 300 300 300 299 299
296 297 298 298 299 301 300 300 302 304 304 303 303 303 303 306 310 311 309 309 312 314 313 312 310 309 310 313 313 312 311 312 313 313 313 313 314 315 315 317 321 325 326 323 319 318 318 317 316 318 321 322 321 319 316 313 312 311 310 310 309 307 306 305 305 304 304 304 303 304 303 303 303 303 302 302 301 301 300 300 300 300 300 299 299 299 299
Wind_Speed
9 9 9 10 11 12 14 18 21 25 25 19 14 9 2 3 2 7 6 5 3 4 3 3 3 0 4 3 1 1 2 1 1 1 0 0 1 1 1 1 1 3 3 4 3 1 2 2 3 4 3 4 1 0 4 7 5 4 2 2 2 2 3 3 1 3 3 3 7 8 6 8 8 4 3 3 3 3 5 5 4 4 4 3 4 4 2
9 8 8 9 10 11 13 16 19 21 22 20 15 6 1 1 3 6 7 5 1 3 1 2 1 3 4 1 1 1 1 2 2 1 0 0 1 1 2 2 2 3 4 3 2 2 3 2 1 3 3 2 1 4 8 7 4 3 2 2 0 1 1 3 3 3 5 6 7 7 7 5 4 2 4 5 5 5 5 4 4 4 2 2 5 4 1
9 9 8 9 9 11 12 14 17 19 18 18 13 4 1 2 1 4 6 4 1 3 4 4 3 4 3 2 2 1 0 2 3 2 2 2 2 1 3 2 1 4 4 3 3 2 4 1 1 2 4 1 2 6 9 7 4 2 3 3 3 2 2 3 5 3 2 0 1 1 2 2 2 3 6 7 6 7 6 3 4 5 2 2 5 6 4
9 9 8 8 9 10 12 13 15 17 17 17 13 4 1 2 1 3 6 4 3 0 2 4 3 3 1 2 3 1 1 2 1 1 1 2 1 2 3 3 2 4 5 2 4 4 3 5 2 2 4 2 2 3 6 6 4 2 2 3 4 3 2 3 6 6 6 6 5 4 3 4 4 5 8 8 6 7 7 4 4 5 4 5 4 7 8
9 8 7 8 8 9 11 12 14 16 16 16 13 5 0 2 1 1 3 3 3 3 3 3 1 3 2 1 3 3 2 2 2 2 1 3 1 1 3 3 1 3 4 2 3 4 2 6 4 2 4 3 1 2 5 5 4 3 4 4 4 5 3 2 6 4 5 5 2 3 7 8 7 8 8 8 7 8 8 7 7 8 8 5 2 6 10
10 9 7 7 8 9 11 12 14 16 15 13 9 2 1 1 0 0 2 1 1 2 4 4 4 4 3 2 2 2 2 1 1 1 1 3 2 2 3 5 4 6 6 2 2 3 5 5 4 4 4 4 3 4 4 4 4 5 4 4 4 6 1 1 4 3 2 6 9 11 11 8 8 9 9 8 9 10 10 8 7 6 8 7 7 8 11
10 9 7 6 6 8 11 11 14 16 13 9 7 3 1 1 1 2 2 0 2 3 6 6 5 5 3 2 2 3 3 3 3 2 2 3 2 3 1 7 9 10 8 3 2 0 3 3 2 3 4 3 3 3 3 3 4 5 4 3 3 5 0 1 3 5 6 9 12 13 12 9 9 10 10 10 10 10 10 8 6 8 10 9 9 11 9
10 10 8 6 5 7 10 11 13 15 11 6 6 5 3 2 1 2 2 2 3 3 4 4 4 4 1 2 3 3 4 4 3 1 4 2 1 3 3 5 9 9 9 3 3 4 7 7 4 4 5 4 3 3 2 1 2 4 3 2 3 4 1 1 3 5 6 7 10 12 12 12 10 8 9 12 12 11 11 10 10 11 10 8 10 12 6
10 10 10 7 5 5 8 9 12 14 11 4 4 5 6 5 4 2 2 1 3 3 4 4 4 4 3 0 2 2 3 5 2 1 1 4 4 5 6 4 4 6 11 7 4 7 7 8 7 7 7 5 4 3 3 5 3 3 2 1 3 3 1 1 5 6 3 5 11 13 12 12 10 6 6 10 10 9 7 7 7 10 11 10 10 9 4
10 10 10 9 5 3 6 8 10 13 11 6 3 4 8 8 6 3 3 1 3 4 4 4 4 3 3 2 2 2 4 3 4 2 4 2 3 6 7 6 2 3 9 9 7 6 7 9 7 7 7 6 5 4 4 6 5 3 2 2 1 3 3 1 4 6 2 3 8 10 9 9 6 0 4 6 8 8 7 4 5 9 11 10 6 6 7
10 10 10 10 6 2 4 6 8 10 11 9 4 3 8 8 4 3 3 2 3 3 3 4 4 3 6 6 3 3 5 5 1 5 1 4 2 4 7 7 4 1 6 9 7 3 9 8 6 7 9 8 8 7 7 7 5 3 4 3 1 2 4 2 2 5 4 4 1 5 6 4 1 5 5 6 9 11 10 6 6 6 5 6 6 7 8
10 10 10 10 7 2 1 3 6 7 9 10 6 4 7 8 4 2 4 3 2 3 3 2 2 3 7 7 4 4 5 5 2 5 6 4 3 2 5 6 4 2 7 7 5 4 9 7 7 9 10 9 9 9 10 9 6 2 4 5 3 3 4 2 2 4 4 1 4 7 3 3 5 2 1 5 10 13 11 6 3 4 6 9 10 10 9
10 10 9 10 8 3 1 2 3 4 6 9 8 5 6 9 5 1 2 3 1 2 2 4 6 5 8 9 5 4 4 3 2 2 4 2 2 1 1 4 6 4 6 5 4 6 7 5 7 8 7 7 8 9 8 7 5 6 5 4 5 4 4 2 2 3 3 2 5 4 3 4 2 5 6 6 9 12 12 7 4 2 8 11 12 10 9
10 10 9 10 9 4 2 2 1 3 5 7 8 6 6 9 6 2 1 3 1 3 1 2 6 8 10 10 6 4 4 4 4 2 1 1 3 2 1 1 5 6 4 3 5 6 4 3 5 5 4 5 6 5 4 5 4 5 6 5 3 6 4 2 3 2 3 4 3 1 1 0 2 3 3 3 4 8 9 6 0 2 2 7 10 9 9
9 10 9 9 9 5 2 2 2 2 4 5 7 5 6 7 7 2 1 2 1 3 1 1 3 7 8 8 5 3 4 4 3 2 2 3 3 1 1 5 4 6 7 2 4 2 2 3 3 3 2 2 1 2 2 3 3 2 4 4 4 5 4 4 4 2 3 5 4 2 1 1 4 6 6 3 5 8 9 8 1 5 2 5 10 12 13
9 10 9 8 8 6 3 3 3 2 3 5 6 4 5 6 7 4 1 1 3 1 3 2 2 4 5 5 4 4 2 2 2 3 4 4 5 3 2 7 10 4 4 4 3 1 3 4 3 3 2 3 4 2 1 0 2 5 5 6 7 6 3 4 6 3 2 5 4 2 3 4 6 7 5 2 8 8 8 7 1 5 2 7 11 11 13
9 10 9 9 8 6 4 3 3 3 3 4 6 3 4 4 6 6 1 1 2 2 4 3 3 2 2 4 5 3 1 1 1 2 1 2 4 6 6 6 8 7 1 3 2 3 4 3 3 3 2 4 4 3 2 2 1 3 5 5 6 5 4 4 5 3 2 5 3 2 2 3 6 6 5 5 7 8 9 4 4 6 5 8 11 11 10
8 9 10 9 8 7 4 3 3 3 3 4 6 4 4 6 6 6 2 2 2 3 3 6 6 2 2 3 5 3 1 2 2 1 1 2 1 3 4 3 4 7 5 1 2 3 4 2 3 4 3 3 2 4 3 2 3 2 1 1 2 3 3 2 5 4 3 5 3 1 3 4 5 5 6 6 5 7 5 4 6 5 6 7 10 11 9
7 9 9 9 8 7 4 2 3 4 4 4 5 3 3 5 4 6 3 1 1 3 5 9 5 2 2 3 3 3 3 3 1 1 1 2 2 3 3 2 1 2 3 2 2 3 3 2 2 4 2 3 2 4 4 3 3 3 3 3 2 2 1 1 3 3 3 3 3 1 3 4 4 4 3 3 5 2 4 5 3 7 8 7 9 11 8
7 8 9 9 9 8 5 2 3 3 4 5 5 4 1 3 4 7 5 1 1 3 6 6 3 4 4 2 1 2 4 4 2 2 1 2 2 2 3 2 2 1 1 1 1 1 3 3 3 2 3 4 3 3 3 2 2 3 5 3 3 4 3 0 1 3 3 3 3 2 2 5 6 6 1 2 3 5 5 4 5 7 9 9 10 9 9
6 7 8 9 9 8 6 2 2 3 5 5 5 5 1 6 7 6 5 2 1 1 3 4 6 10 12 10 9 7 5 6 6 3 1 3 2 3 3 3 2 1 2 2 2 2 2 3 2 2 3 2 1 3 4 2 0 2 4 4 2 3 3 2 3 2 3 3 2 3 5 5 4 6 4 2 4 5 7 9 6 6 7 8 8 7 8
6 6 7 9 9 8 7 3 2 3 5 6 6 6 2 4 3 3 5 4 4 5 8 13 17 21 23 23 22 19 17 18 18 12 5 4 3 1 3 2 1 2 2 2 2 2 1 2 2 2 2 2 2 2 3 5 2 2 2 4 2 4 5 5 3 1 3 5 5 5 3 1 2 4 4 4 4 5 8 10 7 5 6 6 8 8 7
6 6 7 8 8 7 7 3 1 3 4 6 7 7 6 3 2 4 4 4 4 6 10 15 17 19 20 21 20 18 18 19 23 21 14 7 4 2 2 1 1 3 2 3 2 2 2 2 3 2 2 3 3 3 2 3 3 3 1 2 1 3 4 5 4 2 2 2 0 1 3 4 5 5 4 5 7 6 7 9 7 5 5 6 8 9 8
6 6 6 7 8 7 6 4 1 4 4 6 8 9 8 4 5 9 6 2 2 3 5 6 5 7 10 14 16 18 18 16 18 22 20 15 6 2 2 2 1 2 3 0 2 1 1 2 2 2 2 3 3 5 3 2 3 3 3 2 1 2 3 4 4 4 3 1 1 2 5 6 7 7 7 7 7 6 6 9 8 7 8 8 9 10 10
6 6 6 6 8 7 5 3 2 4 5 6 8 9 7 3 3 7 5 1 1 1 1 3 4 6 9 16 17 17 17 15 17 19 20 22 15 6 5 5 1 1 4 3 1 3 1 2 1 2 3 3 2 4 3 2 3 3 4 2 3 3 3 5 4 3 3 2 4 4 6 5 5 7 7 7 8 7 7 9 10 10 11 12 14 15 13
6 6 5 6 7 7 4 3 2 4 5 6 8 9 8 6 3 2 3 2 1 1 1 3 6 7 14 18 17 16 15 16 19 16 17 23 18 11 8 5 2 2 3 3 3 2 1 2 2 3 3 2 2 3 3 4 4 4 4 5 5 3 5 4 4 4 4 3 3 6 7 5 3 5 7 8 9 10 10 10 11 12 12 12 14 16 16
6 6 5 5 6 6 5 4 3 4 5 6 8 9 9 9 6 2 1 2 1 1 1 2 5 10 18 19 19 18 17 18 20 13 17 19 15 12 7 1 2 3 5 5 4 2 2 1 1 3 4 2 2 3 3 3 4 4 3 4 3 5 5 4 6 7 4 4 8 9 7 3 4 7 9 9 10 13 12 11 11 11 12 12 11 12 15
7 6 5 5 6 5 5 5 3 3 4 5 7 8 10 11 9 6 5 2 1 1 2 3 5 10 15 16 18 19 18 18 18 12 20 18 14 15 10 3 1 2 5 3 4 4 2 1 2 2 2 0 3 2 1 2 3 3 3 4 4 6 8 8 8 6 6 9 13 11 7 6 8 10 11 10 11 13 13 12 11 10 13 15 13 10 10
7 6 4 5 5 4 5 5 3 3 4 5 6 5 6 8 7 7 8 6 2 0 1 2 4 5 7 13 19 21 20 20 18 12 19 16 13 14 10 4 2 2 3 1 2 3 3 4 3 2 1 1 3 1 1 3 3 2 5 6 4 6 10 13 12 6 4 9 13 9 7 9 12 12 12 12 13 14 12 10 11 12 15 19 17 14 13
7 6 4 4 4 4 4 4 1 3 6 7 6 2 1 0 1 4 9 10 7 3 1 1 2 4 6 10 14 17 21 21 17 10 14 13 10 12 11 6 2 2 3 1 2 2 3 3 2 2 2 1 4 2 1 3 3 4 5 5 5 7 10 10 8 6 5 8 10 7 8 11 11 10 10 12 16 18 13 10 15 17 19 22 20 18 19
6 5 4 4 4 4 3 2 0 5 8 9 6 2 1 1 2 1 5 9 10 5 1 1 2 4 5 6 7 10 17 19 14 7 6 6 5 9 13 11 4 2 2 1 2 2 2 2 2 3 3 2 5 3 3 4 2 4 4 4 6 8 9 6 3 4 9 11 9 8 9 10 10 9 8 9 15 20 16 14 19 24 24 24 24 22 23
6 5 4 4 4 3 3 2 1 6 11 11 6 3 3 4 4 2 1 8 10 6 1 2 1 2 3 4 7 11 13 12 8 3 1 1 1 3 7 7 4 4 5 3 2 2 2 2 2 2 2 2 4 3 3 5 3 5 6 6 5 6 8 6 5 7 12 15 14 11 9 9 9 10 11 12 18 23 21 19 23 27 26 25 24 23 24
6 5 4 4 3 3 2 1 1 5 10 10 7 5 4 4 4 4 5 10 10 5 2 2 0 2 3 3 7 9 7 4 2 1 1 0 1 1 1 1 1 3 5 4 2 2 2 0 1 2 2 1 3 3 2 3 5 7 7 7 5 5 7 8 9 11 12 14 14 14 13 12 10 12 17 19 21 24 25 24 25 25 24 21 19 18 20
5 5 4 3 3 2 2 2 4 5 6 7 7 7 7 4 1 2 8 11 7 0 0 2 1 2 3 3 5 5 2 1 1 1 2 2 1 2 1 3 3 2 2 2 2 2 1 2 1 2 2 1 2 2 3 4 4 6 7 6 5 7 8 7 8 10 10 8 8 10 14 16 14 15 16 16 17 22 26 25 23 20 15 12 13 16 19
5 5 5 3 2 2 3 4 5 5 5 5 6 7 8 8 5 3 7 7 3 1 1 1 1 2 1 2 4 5 2 0 1 3 3 1 2 2 1 1 1 1 2 0 1 1 2 2 2 2 3 1 1 3 4 4 5 7 8 7 7 9 10 8 7 6 6 7 8 9 15 18 16 14 13 12 14 19 20 19 19 18 12 8 10 16 19
5 5 4 3 4 5 4 5 6 6 4 4 5 4 4 5 6 6 7 5 2 1 2 1 1 3 2 1 3 5 3 1 2 1 2 1 1 2 3 2 1 2 0 2 1 1 2 2 2 1 3 3 3 5 5 7 9 9 9 11 11 10 11 12 11 8 8 10 12 12 14 16 15 13 11 11 13 16 16 13 14 16 13 9 10 14 17
5 4 3 4 5 4 2 4 7 7 4 3 4 4 4 3 3 3 4 4 3 3 2 0 2 3 2 3 4 3 4 2 2 0 1 2 1 1 2 2 2 2 1 2 2 3 2 0 2 2 4 4 5 6 6 9 12 11 11 11 9 8 10 11 13 14 12 12 13 12 11 13 12 11 11 11 11 12 13 12 13 16 15 13 12 14 18
4 3 4 5 4 2 2 4 6 6 6 7 7 4 2 2 2 0 0 1 2 2 1 2 3 2 1 3 4 4 4 3 1 1 0 1 1 1 1 1 2 1 1 2 4 2 2 3 1 2 4 4 4 6 5 8 10 10 11 11 9 9 11 12 15 18 15 11 11 11 10 11 11 10 11 12 10 10 13 16 18 21 21 19 19 20 22
4 3 4 5 3 2 2 3 5 8 10 8 5 2 1 2 1 0 1 0 0 1 1 2 3 2 2 3 5 5 4 3 3 2 1 1 1 1 1 1 1 1 1 2 4 0 2 1 2 2 4 4 4 5 5 7 8 8 9 10 9 12 14 13 16 21 20 16 17 18 18 17 16 13 10 10 9 10 15 20 22 23 23 23 24 25 23
5 4 4 3 3 3 5 8 10 10 8 4 1 1 0 0 0 1 1 1 0 1 2 2 2 2 3 4 5 5 3 2 1 1 2 2 1 2 2 1 1 1 2 3 3 1 2 1 2 3 4 5 5 6 5 7 8 8 8 8 11 16 20 18 18 23 23 21 23 26 25 24 23 18 14 13 11 10 14 18 22 24 25 25 26 26 24
6 5 4 3 4 7 10 11 9 6 3 1 1 1 1 1 1 0 1 1 1 2 2 2 2 2 3 5 5 4 3 3 2 1 1 3 1 2 2 2 1 1 2 4 2 2 3 2 3 5 6 5 6 7 6 7 9 9 9 9 11 18 22 19 17 20 20 16 16 20 22 24 24 22 21 22 20 17 18 20 23 25 27 27 26 26 27
5 5 5 4 7 9 8 6 3 1 2 1 1 1 1 1 1 1 1 2 2 1 1 3 3 3 4 6 5 3 3 3 2 1 0 3 2 2 2 2 0 0 3 5 1 2 1 3 4 5 5 6 7 7 7 8 9 11 12 11 13 17 19 15 13 17 21 20 18 18 21 24 24 24 26 27 25 24 25 26 25 26 27 27 27 28 28
4 5 5 5 5 4 3 1 1 1 1 1 2 2 2 2 1 1 1 1 1 1 2 3 3 3 4 5 3 3 2 1 0 1 0 3 3 0 1 1 1 2 4 2 2 2 3 5 5 5 5 6 7 7 7 8 10 11 12 13 16 20 22 19 16 18 23 25 24 24 25 26 25 26 29 31 28 26 26 27 28 28 27 27 28 29 29
7 5 3 2 1 1 2 2 1 2 3 3 3 3 4 3 2 2 2 2 2 2 3 3 3 3 4 3 2 2 3 2 1 0 1 1 1 1 1 2 3 3 1 0 1 2 4 4 4 5 5 6 7 7 7 8 9 10 10 11 14 19 20 19 17 17 18 22 24 26 26 26 26 26 29 31 32 29 26 25 28 29 28 27 29 29 27
5 3 1 1 1 2 2 2 2 3 4 4 3 2 3 3 3 3 3 3 3 3 4 3 4 4 4 3 2 2 1 2 2 1 1 0 1 2 3 3 2 1 1 1 3 4 4 4 4 5 7 8 8 7 7 8 10 11 10 9 10 13 15 15 15 15 16 20 24 25 25 26 27 26 26 28 32 34 31 29 29 30 30 29 29 28 26
3 2 2 2 3 3 2 2 3 3 2 2 3 3 4 4 4 4 4 3 3 3 4 4 4 4 3 2 1 1 1 2 2 2 1 2 1 2 3 2 1 2 2 4 5 6 6 6 5 6 8 10 10 8 8 8 10 11 12 11 11 13 14 16 16 17 19 23 25 25 25 27 27 27 26 27 29 32 33 33 33 33 32 30 29 28 26
2 1 1 2 2 2 2 3 3 3 3 3 4 4 4 4 3 3 3 4 4 5 4 3 3 2 2 1 1 1 1 1 1 1 1 2 1 1 2 2 3 3 5 7 8 6 4 4 5 6 8 9 9 8 8 9 10 12 13 14 14 15 16 16 16 18 21 25 25 24 25 27 28 28 28 27 27 29 32 34 34 34 33 32 30 28 26
1 2 2 2 2 3 3 3 2 1 2 3 4 4 4 3 2 3 3 3 3 4 4 2 1 1 0 0 0 1 1 1 0 1 1 1 1 0 0 2 4 4 4 6 7 5 4 4 6 7 7 8 8 8 8 9 12 13 13 13 14 16 16 16 17 21 25 27 25 24 26 28 29 30 29 28 27 28 32 34 34 34 33 32 30 28 26
3 2 2 2 2 2 3 4 3 2 3 3 2 2 3 4 4 5 4 2 2 2 3 2 2 1 1 1 1 0 1 1 1 0 0 1 2 2 2 3 6 6 5 4 4 4 4 5 6 7 8 8 7 7 7 8 10 12 13 14 16 18 19 19 21 25 29 28 27 27 29 30 30 30 30 29 27 28 31 34 35 34 33 32 31 29 27
4 3 2 2 2 2 1 3 4 4 4 3 3 2 3 4 5 5 4 3 2 2 2 2 2 1 0 1 2 0 3 2 2 2 1 2 3 2 3 5 6 6 4 4 4 4 5 5 6 7 8 8 6 6 7 9 10 11 13 16 19 21 23 25 27 28 29 29 31 32 31 31 31 31 31 31 30 30 31 33 34 33 33 32 31 30 29
3 3 2 2 3 3 1 3 4 5 5 4 4 4 3 3 3 5 5 4 3 4 2 1 1 2 1 1 1 1 2 1 2 2 3 3 2 3 5 7 6 4 3 4 4 5 5 5 6 7 7 7 6 6 8 9 10 11 14 17 19 21 23 26 28 28 28 30 33 34 32 31 32 33 33 33 33 31 28 29 32 34 34 33 32 31 29
3 2 1 2 3 4 3 1 1 3 4 5 5 5 4 3 4 5 5 5 4 2 2 2 3 2 2 2 2 2 1 1 2 3 4 4 3 4 6 5 4 3 4 5 5 5 5 5 6 7 7 7 7 7 8 9 9 11 14 17 19 21 23 25 27 28 28 29 31 31 31 31 33 35 34 33 31 27 24 25 29 32 33 32 31 29 26
Wind_Direction
328 329 335 333 342 351 351 353 354 354 357 359 0 1 30 98 271 279 316 313 275 80 65 309 357 54 240 247 226 168 155 174 269 317 16 29 85 137 246 197 186 226 225 246 265 106 65 28 109 142 110 67 30 267 89 79 69 74 77 303 307 73 75 67 352 306 304 349 29 38 41 63 70 38 45 91 68 82 121 135 135 109 107 125 89 80 284
330 329 335 337 347 353 352 354 355 358 2 359 357 2 131 143 260 281 321 319 241 106 133 253 305 281 284 310 226 196 150 174 180 156 174 206 100 80 267 210 189 241 228 235 261 137 104 29 98 124 94 50 16 63 76 80 70 68 158 194 55 45 72 81 68 10 353 353 7 15 13 41 81 35 30 67 77 88 89 79 81 69 46 133 107 103 212
340 335 338 340 344 351 353 353 354 359 360 354 355 360 278 338 269 277 311 322 104 142 178 160 178 267 331 8 244 232 341 205 181 183 189 167 139 170 258 245 263 281 265 263 280 198 134 138 287 89 90 55 8 57 69 78 83 108 187 169 99 109 134 108 113 120 119 131 312 78 63 41 47 23 32 43 55 84 98 84 76 71 19 42 99 129 162
348 339 338 339 342 348 350 349 351 356 356 352 354 351 284 35 53 306 318 344 48 186 219 116 131 240 26 349 273 181 256 275 144 152 144 104 131 236 273 307 342 290 278 293 301 285 131 120 130 112 109 105 330 43 70 73 82 102 108 88 85 91 68 99 132 150 169 182 214 213 133 85 68 51 45 42 49 84 102 93 95 121 104 56 77 131 131
351 342 335 337 341 343 344 347 351 354 354 351 352 346 225 76 67 5 351 339 349 342 336 44 49 233 155 158 254 196 209 293 17 2 64 90 76 299 326 347 3 283 296 330 305 304 61 96 106 101 96 99 25 29 68 71 73 74 51 48 83 84 46 98 125 144 190 184 171 89 92 96 98 83 63 55 63 77 91 109 136 136 108 94 202 135 114
347 345 334 333 342 339 339 347 351 351 352 353 358 352 235 55 81 81 56 306 287 343 322 318 301 261 196 180 258 201 176 207 229 280 24 56 44 38 352 323 307 306 306 270 261 338 35 60 93 111 107 104 65 24 25 27 46 62 27 5 88 103 103 184 111 75 86 113 98 90 93 94 91 90 85 77 78 84 92 114 148 137 110 145 183 134 115
342 345 337 329 337 335 336 345 349 351 357 9 29 36 293 38 45 333 14 28 222 250 283 293 294 270 216 175 249 194 164 205 221 190 70 26 18 90 55 307 311 314 303 239 180 75 103 106 110 135 126 111 97 64 22 354 18 57 40 355 76 106 189 259 105 73 58 87 102 101 99 93 82 85 90 84 82 90 96 105 119 104 105 133 140 116 114
341 344 344 331 328 331 332 341 349 355 6 31 58 50 5 6 350 317 15 358 281 270 294 314 319 306 262 172 251 213 169 202 227 134 113 104 2 107 149 278 294 304 308 304 165 182 161 149 163 157 129 112 126 144 167 186 26 42 50 353 32 84 183 244 94 74 43 69 98 99 98 101 92 80 88 90 86 88 96 107 109 100 103 120 117 109 113
344 346 348 341 332 327 330 341 352 358 8 37 73 46 9 333 295 291 81 5 315 332 327 332 348 342 353 316 288 283 213 205 169 55 156 147 165 179 175 219 279 319 326 316 211 188 154 144 163 156 141 148 159 158 168 153 113 39 37 17 25 73 125 359 67 78 60 87 103 101 96 93 80 69 98 104 100 103 114 128 130 127 129 123 113 116 148
348 347 349 348 343 328 332 343 352 358 8 34 83 37 11 354 319 328 79 118 333 6 343 340 12 350 314 309 321 313 271 240 123 85 322 327 157 170 164 159 136 341 315 292 251 205 148 139 151 138 122 123 116 117 138 133 131 152 117 50 32 104 106 89 85 93 120 148 124 114 95 74 55 28 168 127 108 114 120 119 131 137 135 135 143 160 173
349 348 349 350 349 332 329 340 346 356 10 28 61 56 23 15 328 323 58 89 323 359 8 355 12 343 315 315 331 9 355 334 87 133 207 302 305 128 139 140 116 252 257 267 272 181 130 122 124 107 91 84 82 87 94 82 81 144 136 95 39 76 92 131 126 109 156 218 130 74 63 67 232 238 206 152 125 125 126 129 145 152 143 135 139 148 160
347 349 349 351 352 342 298 326 333 349 8 17 35 66 35 21 343 310 78 111 278 345 34 336 294 300 311 314 329 9 13 349 327 151 166 249 282 104 116 121 116 217 249 274 320 73 99 87 75 72 64 65 68 65 70 66 45 49 112 122 116 65 81 119 89 111 154 261 29 58 62 243 250 278 140 130 118 115 109 94 112 136 120 116 126 146 161
347 350 352 353 354 349 273 293 318 341 0 7 15 38 37 31 25 316 83 107 243 324 25 299 290 316 328 329 339 337 332 355 12 126 156 220 267 260 114 137 155 222 277 302 2 56 72 63 61 59 43 41 44 39 45 51 35 26 38 83 121 114 113 112 72 105 131 51 56 101 213 253 338 58 95 112 97 99 95 62 26 123 127 129 142 155 151
348 352 356 355 355 349 292 252 281 328 342 352 4 26 48 49 47 347 10 88 185 266 263 299 313 335 338 328 328 328 328 348 9 13 19 258 250 249 292 214 186 206 246 324 28 55 71 68 53 38 15 23 24 1 1 22 41 48 25 14 103 123 120 98 68 82 120 113 91 54 354 65 89 104 160 163 128 129 124 107 316 259 154 136 137 135 133
352 354 357 356 356 348 293 239 245 302 318 331 348 27 72 58 44 5 287 109 134 275 281 89 329 328 322 313 323 5 354 345 350 346 324 297 284 246 319 341 318 205 181 92 36 52 82 93 90 64 37 62 69 287 317 353 353 16 27 25 71 105 124 136 118 72 90 107 89 42 53 203 220 233 254 243 152 143 122 111 146 293 310 127 127 131 141
356 357 357 357 356 347 308 244 235 260 287 309 327 17 85 68 44 33 284 150 110 176 270 289 319 311 300 302 337 28 25 326 333 347 340 337 331 311 310 347 339 288 170 104 74 108 87 95 136 142 170 189 180 216 269 36 320 320 355 37 52 55 63 100 103 86 90 105 112 156 183 227 230 230 255 210 140 125 92 91 172 270 209 131 123 133 146
357 359 356 357 359 350 322 266 243 252 262 282 305 354 81 79 43 38 49 126 95 208 252 321 357 345 1 348 336 355 88 279 11 75 344 308 315 319 328 347 346 334 359 92 63 70 93 110 125 127 208 215 158 166 223 131 114 308 335 19 36 35 27 60 94 107 106 100 114 193 206 236 231 218 217 180 135 95 75 88 231 234 186 141 126 132 145
356 360 354 356 2 353 328 278 260 262 251 266 294 336 87 102 58 39 64 74 28 245 277 8 13 354 31 355 295 292 6 335 336 96 312 309 299 318 331 346 1 353 354 47 89 94 116 142 136 139 217 258 139 148 194 150 150 206 213 84 53 38 29 78 121 126 101 99 115 242 252 236 221 208 199 177 110 71 91 196 220 185 162 146 127 128 136
353 356 352 354 1 357 340 278 256 256 242 253 284 320 91 116 74 38 45 79 113 243 305 351 354 283 351 354 289 307 352 340 338 72 42 345 289 291 325 8 39 352 350 31 80 118 138 184 191 135 152 266 218 157 174 178 181 178 136 126 149 141 77 64 109 119 109 110 114 94 275 243 192 177 195 138 102 128 211 215 167 133 142 142 124 125 131
348 352 352 352 354 358 352 292 236 241 242 241 263 297 348 110 74 42 34 7 281 283 296 312 295 282 320 336 234 317 346 341 345 39 114 223 276 3 31 7 326 292 285 37 31 181 155 186 227 150 158 228 218 152 171 207 212 173 150 157 183 162 140 97 168 146 110 76 81 106 233 230 169 148 134 73 135 197 191 130 107 124 133 127 120 127 132
344 347 353 351 349 358 1 323 223 236 249 239 253 284 359 100 86 44 7 317 245 253 284 298 304 301 297 281 258 249 243 243 252 264 264 265 284 83 129 212 236 252 235 185 182 222 186 183 223 181 172 218 198 159 168 149 247 202 150 137 152 144 137 172 204 172 119 119 175 195 216 225 166 143 165 195 190 179 143 124 127 133 127 123 122 128 133
341 340 347 349 348 357 3 346 221 230 246 238 244 257 231 123 100 20 334 297 232 226 270 292 299 296 290 285 277 265 252 250 252 249 252 290 305 124 161 216 235 244 249 107 118 241 216 172 191 169 170 186 170 179 153 126 161 260 81 106 171 195 174 159 146 153 153 164 205 223 216 220 93 110 146 149 127 126 127 124 124 126 131 132 127 128 131
340 337 340 346 347 354 1 352 237 223 238 235 233 240 246 263 328 2 347 300 268 261 270 282 292 292 286 281 279 279 279 273 264 256 246 246 288 305 218 218 250 253 263 86 116 239 239 197 188 157 182 194 147 122 96 121 188 224 88 90 206 180 147 116 108 142 136 94 134 195 95 80 70 68 80 105 108 118 122 114 110 118 127 126 127 131 134
336 336 339 345 344 346 353 349 261 221 234 235 227 236 253 277 358 12 10 11 19 342 293 290 289 268 275 291 299 303 304 293 281 273 256 233 234 309 270 227 214 294 300 83 132 131 303 247 215 139 194 221 152 138 151 169 195 180 114 63 306 180 119 83 99 134 116 65 251 154 104 102 100 87 75 81 93 106 112 111 116 121 116 115 119 120 118
328 333 340 343 340 340 346 347 287 222 233 239 228 235 247 239 44 22 5 349 43 51 330 315 276 256 299 316 310 302 301 302 306 296 258 226 213 212 236 245 239 289 280 281 24 32 333 247 211 141 208 233 171 160 178 172 173 164 127 138 216 195 122 96 100 107 109 174 200 139 95 89 101 105 106 104 101 100 102 110 115 113 108 110 114 115 114
319 327 336 338 338 342 349 350 303 227 227 239 230 227 229 218 192 45 11 331 320 134 104 291 267 300 336 328 304 294 301 312 318 300 239 217 216 216 225 258 306 348 319 318 335 330 238 197 132 138 196 228 152 154 177 170 151 128 137 183 195 137 108 120 120 98 85 113 142 109 80 49 45 105 123 128 124 117 112 112 114 111 108 108 109 113 118
309 318 331 334 337 343 347 347 316 233 220 232 229 222 222 224 216 177 78 350 353 18 348 275 266 317 330 315 298 299 308 319 320 282 213 203 213 212 200 266 340 10 13 353 329 355 81 83 135 168 197 232 123 130 155 161 131 105 132 190 172 115 120 134 121 121 148 184 172 154 135 141 191 165 144 139 134 125 121 121 119 116 117 116 109 108 113
304 312 324 328 334 340 345 346 328 228 215 224 223 221 228 235 228 206 198 195 115 169 227 243 279 313 315 301 300 306 310 323 322 261 207 196 203 201 182 137 124 64 40 5 318 340 8 276 247 196 198 140 105 105 28 88 98 98 165 190 169 147 161 165 148 157 203 197 178 164 140 147 176 166 150 148 140 129 128 132 130 126 127 124 119 116 112
300 304 313 323 329 333 342 348 336 201 191 199 204 210 229 241 242 229 219 213 199 254 306 298 297 310 304 298 306 308 306 320 323 260 210 193 189 193 184 151 136 109 91 150 270 297 272 247 229 206 241 115 125 146 354 101 121 209 212 198 184 167 172 171 161 157 190 184 176 167 139 148 166 164 155 153 144 135 133 136 135 134 132 128 126 127 127
296 298 304 317 322 323 338 348 343 169 166 171 170 148 40 294 245 233 224 216 217 230 16 11 286 302 305 295 299 302 302 313 318 270 209 182 173 186 188 188 191 119 107 159 255 251 260 280 288 276 292 80 115 134 153 137 169 255 239 194 174 171 176 177 166 148 151 163 165 154 137 144 152 147 143 149 145 138 135 139 140 138 135 132 129 128 128
288 290 298 307 309 313 323 331 172 161 168 171 157 107 29 165 130 233 231 206 198 198 68 45 259 304 316 283 265 286 297 304 308 281 207 170 166 180 179 182 191 145 131 271 278 227 222 272 292 289 311 70 107 126 143 135 163 268 245 187 175 172 171 178 169 132 129 129 122 110 117 130 133 127 131 150 146 136 132 136 140 138 137 136 135 134 133
281 284 294 294 291 301 307 295 181 167 179 187 180 136 136 136 104 56 187 176 175 178 109 34 318 313 313 285 284 294 296 293 294 300 128 104 359 171 170 179 189 168 165 186 279 270 235 209 207 254 289 85 100 98 109 124 170 226 208 185 182 171 156 148 131 121 125 126 117 107 120 151 163 154 151 154 145 135 132 136 137 136 136 136 135 135 135
275 276 282 279 279 290 287 262 161 166 185 199 204 183 150 108 64 63 138 159 168 188 188 123 75 279 263 289 303 298 285 265 265 61 102 273 331 123 175 284 26 144 160 167 194 246 267 242 184 239 273 45 88 103 135 184 212 206 180 165 165 153 139 136 134 135 141 142 139 144 160 174 170 149 143 144 141 136 136 137 135 132 130 129 129 130 130
272 275 274 264 261 264 225 161 141 156 181 204 218 212 205 217 327 85 148 161 164 225 291 134 140 266 277 323 319 299 265 145 141 176 217 277 13 133 216 329 15 93 174 178 172 201 267 317 276 237 261 350 85 135 222 247 218 170 147 146 146 128 115 118 130 141 146 141 135 143 146 139 130 130 135 137 136 137 137 137 135 129 123 124 130 131 128
272 271 263 250 221 176 160 147 147 161 180 204 221 217 212 221 232 178 164 170 150 55 250 178 163 226 277 343 304 283 288 33 199 194 198 262 22 85 144 21 18 198 207 211 71 168 198 207 198 216 247 252 155 197 227 213 173 151 141 144 143 129 124 130 140 140 129 112 106 117 125 126 129 137 141 139 139 141 140 138 137 133 128 129 135 133 130
270 270 258 213 166 155 160 170 176 184 198 211 208 190 181 210 227 214 201 205 207 185 196 175 181 196 182 184 257 276 307 289 222 181 139 136 19 42 84 102 210 249 272 50 41 232 222 192 153 202 258 229 197 222 213 168 159 164 162 161 163 155 148 150 147 133 116 114 120 128 133 135 140 143 143 145 147 144 141 139 138 135 133 136 139 135 134
267 267 229 190 169 159 197 219 204 204 216 204 175 151 129 140 179 204 212 219 224 213 194 165 221 215 197 205 239 295 329 293 241 355 76 151 183 359 56 108 202 243 27 55 205 213 238 315 118 171 239 229 212 231 214 164 162 172 171 170 173 158 144 142 135 123 114 117 125 132 135 138 143 146 147 151 153 147 142 144 145 142 141 142 144 142 141
260 253 221 205 181 153 244 236 211 196 184 161 145 132 93 81 94 78 273 181 195 214 208 206 226 246 262 247 262 309 327 318 346 42 225 183 143 48 47 134 198 201 94 256 242 200 62 14 60 188 238 251 239 239 217 174 172 176 169 169 170 152 143 144 136 128 125 129 140 146 146 148 156 162 158 157 158 152 147 147 147 145 143 144 145 145 144
239 245 235 224 211 202 210 193 170 164 162 154 139 115 14 28 56 260 285 52 129 255 237 212 218 212 200 242 276 295 303 325 359 354 282 230 130 141 177 196 223 127 121 252 266 166 83 323 270 222 248 260 243 232 203 171 176 186 174 167 163 154 153 155 150 148 152 162 167 166 165 164 166 168 163 157 151 144 143 144 144 144 144 145 146 146 145
221 225 230 225 216 192 160 153 153 155 152 137 71 37 29 349 209 190 175 70 106 242 218 200 220 225 194 212 257 278 281 290 292 261 250 249 196 139 128 184 216 141 158 239 263 139 131 196 229 223 235 235 221 216 193 166 174 190 184 169 163 162 163 166 168 166 165 166 168 170 170 167 163 160 158 154 148 142 144 146 146 146 146 147 148 149 148
204 222 238 215 181 167 156 153 155 151 121 69 29 108 139 245 253 151 127 160 201 249 233 171 179 234 209 198 221 254 277 286 268 193 255 280 259 116 127 229 243 116 191 231 239 103 115 178 225 230 231 222 211 206 188 169 176 187 184 174 170 170 169 168 168 167 162 157 161 167 166 161 157 155 155 154 149 146 147 147 147 148 148 148 151 152 151
195 228 234 188 160 157 154 154 161 123 73 80 214 195 183 210 194 102 150 200 204 244 238 186 185 206 199 189 199 224 249 270 285 68 343 282 273 130 145 212 188 132 227 229 181 90 141 216 232 238 232 216 209 201 182 172 179 185 184 179 175 173 170 164 159 162 160 155 154 157 157 156 154 153 153 151 148 146 148 149 149 150 150 149 150 151 151
203 224 208 171 145 144 154 168 187 160 141 167 193 191 189 193 172 155 196 238 253 225 215 212 214 215 199 188 194 207 203 209 355 65 186 264 271 166 131 154 163 211 232 215 111 134 208 222 230 235 226 211 206 199 184 178 180 182 183 182 177 173 170 163 157 160 160 156 154 155 155 154 153 153 152 150 147 146 149 151 151 150 150 148 149 151 153
246 251 226 171 113 140 176 169 155 190 205 201 190 186 188 183 167 162 180 204 209 207 212 204 185 197 215 215 202 199 190 160 100 92 222 259 287 276 219 218 218 220 228 124 144 211 227 229 226 217 206 207 212 201 181 175 176 177 179 180 174 170 166 159 152 153 154 152 153 153 152 150 149 150 152 152 150 148 149 150 151 150 150 149 150 152 154
242 237 193 166 188 190 187 174 174 204 211 200 182 179 177 163 161 180 200 200 188 196 216 206 170 177 218 240 225 210 196 116 109 184 212 60 345 269 244 231 221 196 177 219 234 238 241 238 218 192 190 205 216 204 179 173 177 176 170 166 164 163 161 156 153 151 151 152 153 152 150 149 149 150 153 155 154 152 151 151 151 151 149 148 148 151 154
238 199 173 198 211 202 192 190 191 202 211 192 179 180 170 160 169 190 202 200 195 202 215 207 182 183 216 236 215 211 175 110 135 193 165 112 144 247 265 260 215 186 200 223 231 234 236 232 209 185 190 204 211 204 185 176 178 175 167 163 167 170 167 162 157 153 153 154 154 152 151 151 151 151 152 154 154 153 153 153 153 153 150 148 149 152 154
244 222 208 229 218 201 206 213 202 194 189 181 183 191 189 182 191 208 203 195 202 213 217 199 169 179 215 233 228 262 318 65 127 210 172 123 150 282 318 295 238 208 209 223 228 228 230 227 210 199 200 203 206 203 189 178 179 181 175 168 168 170 167 160 154 152 153 153 151 150 151 151 151 150 150 150 152 153 153 153 154 155 155 153 152 153 155
215 187 197 223 221 198 195 195 185 200 216 199 192 200 203 201 227 250 244 213 199 209 217 210 153 135 326 358 195 246 297 15 70 230 190 132 139 124 305 251 245 234 221 224 226 220 211 210 207 205 205 203 200 197 191 182 180 180 176 170 167 165 162 157 153 153 154 152 150 150 151 151 151 150 149 148 149 152 153 154 156 157 155 154 153 154 157
262 249 216 228 249 224 188 175 175 244 271 265 240 212 204 204 223 242 245 223 177 185 195 169 142 166 243 315 72 204 242 227 192 192 93 157 180 183 189 221 236 241 237 229 221 211 209 205 199 202 212 215 205 192 184 180 178 177 175 172 168 163 159 156 155 155 154 153 151 151 151 150 149 149 149 148 149 152 154 156 156 156 155 156 157 158 160
248 251 227 216 241 267 188 157 173 210 245 268 284 266 201 194 213 234 233 208 157 103 67 60 75 92 226 70 79 284 259 234 154 130 187 213 201 197 215 223 223 226 232 232 220 212 208 200 192 203 218 220 207 185 174 174 178 180 178 173 168 163 159 156 155 155 154 154 152 151 151 151 152 152 152 152 152 152 153 155 156 157 158 161 161 162 164
222 244 251 218 220 241 208 141 167 197 206 215 239 243 212 193 221 232 214 176 119 91 97 132 102 68 62 109 138 195 247 218 139 158 213 221 196 200 226 232 227 219 229 241 235 222 210 197 193 204 217 218 204 188 178 175 178 179 174 167 161 157 155 154 153 152 152 152 152 151 152 154 155 154 152 151 149 147 148 153 157 159 162 164 165 166 168
207 223 232 199 212 239 252 240 220 218 200 194 211 221 209 211 236 228 192 147 122 146 193 171 119 113 171 210 206 199 200 186 182 199 210 211 208 214 225 230 231 234 245 250 246 235 224 213 204 203 205 203 196 188 180 174 171 169 164 158 153 151 152 153 152 150 149 150 152 152 151 152 152 151 148 148 148 148 150 155 158 160 162 166 168 169 169